933  
ASUS45 KSLC 211310  
RWRUT  
 
UTAH REGIONAL WEATHER ROUNDUP  
NATIONAL WEATHER SERVICE SALT LAKE CITY UT  
600 AM MST WED FEB 21 2018  
 
UTZ001>011-023>025-211400-  
 
NORTHERN UTAH  
 
CITY SKY/WX TMP DP RH WIND PRES REMARKS
 
BRIGHAM CITY MOCLDY 12 5 73 CALM 30.16S  
HILL AFB PTCLDY 8 -1 67 E17 30.11F WCI -11  
LOGAN MOCLDY 0 -8 69 NE3 30.17R  
OGDEN PTCLDY 11 1 64 S10 30.12F WCI -3  
SALT LAKE CITY MOCLDY 17 5 59 SE6 30.14F WCI 9  
TOOELE VALLEY MOCLDY 10 5 79 S16 30.14R WCI -7  
WENDOVER MOCLDY 17 10 74 CALM 30.13S  
HEBER CITY N/A -8 -13 77 CALM 30.11F  
WEST JORDAN MOCLDY 14 10 83 SE8 30.13S WCI 3  
 

 
 
UTZ011>015-024>027-211400-  
 
CENTRAL/NORTHEAST UTAH  
 
CITY SKY/WX TMP DP RH WIND PRES REMARKS
 
PROVO AIRPORT MOCLDY 9 2 73 S6 30.16S WCI -1  
MOAB/CANYONLAN CLEAR 22 14 71 E8 30.12S WCI 12  
DELTA MOCLDY 0 -4 85 CALM 30.10S VSB<1/4  
PRICE PTCLDY 7 -5 57 CALM 30.08R  
RICHFIELD PTCLDY 9 7 92 CALM 30.12S  
VERNAL PTCLDY 2 -6 69 CALM 30.17R  
 

 
 
UTZ013>016-019>022-027-211400-  
 
SOUTHERN UTAH  
 
CITY SKY/WX TMP DP RH WIND PRES REMARKS
 
BRYCE CANYON CLOUDY -1 -7 75 W8 30.00S WCI -15  
CEDAR CITY CLOUDY 9 5 84 NE3 30.02S  
MILFORD CLOUDY 2 -1 88 N3 30.07F  
ST GEORGE PTSUNNY 28 17 63 S3 30.12S  
HANKSVILLE PTCLDY 12 0 57 NW3 30.16S  
KANAB PTCLDY 23 3 42 N13 30.10S WCI 11  
BLANDING N/A 14 3 62 N6 30.16R WCI 5  
 

 
 
REGIONAL REPORTS COLORADO/ARIZONA  
 
CITY SKY/WX TMP DP RH WIND PRES REMARKS
 
CRAIG, CO PTCLDY -16 -22 74 CALM 30.14S  
GRAND JUNCTION CLEAR N/A N/A N/A E15 30.15S  
RIFLE, CO CLEAR 6 2 83 E3 30.17R  
MONTROSE, CO CLEAR 6 1 80 SE3 30.18S  
CORTEZ, CO CLEAR 6 2 83 CALM 30.11R  
COLORADO CITY N/A 28 5 37 NE9 30.06S WCI 20  
PAGE, AZ MOCLDY 25 9 50 CALM 30.08S  
GRAND CANYON MOCLDY 7 2 80 CALM 29.99F  
KINGMAN, AZ CLEAR 21 2 43 SE8 30.04S WCI 11  
FLAGSTAFF, AZ CLEAR 3 -1 83 CALM 29.99S  
 

 
 
REGIONAL REPORTS NEVADA/IDAHO/WYOMING  
 
CITY SKY/WX TMP DP RH WIND PRES REMARKS
 
LAS VEGAS, NV MOCLDY 39 1 20 N8 30.08S WCI 33  
ELY, NY CLOUDY 13 4 67 CALM 30.00S  
ELKO, NV MOCLDY 7 2 80 SW3 30.08R  
POCATELLO, ID MOCLDY 12 5 73 N8 30.12R WCI 0  
BURLEY, ID MOCLDY 11 6 81 N5 30.11R WCI 3  
EVANSTON, WY MOCLDY 1 -9 62 E7 30.02R WCI -12  
ROCK SPRINGS, MOCLDY -5 -12 72 E5 30.07R WCI -16  
 

 
 
 
CLICK HERE TO GO TO PREVIOUS BULLETINS.

The Nexlab UT Page Main Text Page